Flag for U.S.A. Weather past 2 weeks in Norfolk, Virginia, U.S.A.

Now
45 °F

Passing clouds.


Feels Like: 37 °F
Forecast: 44 / 57 °F
Wind: 20 mph from North

Location: Norfolk Naval Air Station

Current Time: Apr 1, 2015 at 6:46:13 AM

Latest Report: Apr 1, 2015 at 5:59 AM


Visibility: 10 mi

Pressure: 30.02 "Hg

Humidity: 56%

Dew point: 30 °F

Location of NorfolkLocation

Historic Weather in Norfolk — Graph

°F

Norfolk temperature yesterday

Maximum temperature yesterday: 73 °F (at 2:59 PM)
Minimum temperature yesterday: 44 °F (at 5:59 AM)
Average temperature yesterday: 61 °F

Past Weeks' High & Low Weather Summary

 TemperatureHumidityPressure
High81 °F (Mar 17, 12:59 PM)86% (Mar 20, 10:59 AM)30.42 "Hg (Mar 20, 10:59 AM)
Low32 °F (Mar 29, 5:59 AM)18% (Mar 18, 3:59 PM)29.65 "Hg (Mar 31, 6:59 PM)
Average51 °F54%30.08 "Hg
* Reported Mar 17 5:59 AM — Apr 1 5:59 AM, Norfolk, Weather by CustomWeather, © 2015

Note: Actual official high and low records may vary slightly from our data, if they occured in-between our weather recording intervals... More about our weather records

Advertising

Norfolk weather history for previous 24 hours

 ConditionsComfort  
Time TempWeatherWind HumidityBarometerVisibility
5:59 AM
Wed, Apr 1
45 °FPassing clouds.20 mph56%30.02 "Hg10 mi
4:59 AM48 °FPassing clouds.17 mph63%29.98 "Hg10 mi
3:59 AM48 °FPassing clouds.21 mph66%29.95 "Hg10 mi
2:59 AM49 °FPassing clouds.23 mph66%29.92 "Hg9 mi
1:59 AM53 °FPassing clouds.21 mph66%29.88 "Hg10 mi
12:59 AM56 °FPassing clouds.17 mph62%29.85 "Hg10 mi
11:59 PM
Tue, Mar 31
55 °FPassing clouds.13 mph67%29.82 "Hg10 mi
10:59 PM59 °FOvercast.31 mph56%29.78 "Hg10 mi
9:59 PM69 °FPassing clouds.6 mph30%29.72 "Hg10 mi
8:59 PM70 °FPassing clouds.13 mph28%29.68 "Hg10 mi
7:59 PM70 °FScattered clouds.17 mph27%29.65 "Hg10 mi
6:59 PM72 °FScattered clouds.14 mph24%29.65 "Hg10 mi
5:59 PM73 °FPassing clouds.15 mph22%29.67 "Hg10 mi
4:59 PM73 °FPassing clouds.21 mph24%29.70 "Hg10 mi
3:59 PM73 °FPassing clouds.16 mph23%29.72 "Hg10 mi
2:59 PM73 °FPassing clouds.18 mph23%29.78 "Hg10 mi
1:59 PM72 °FPassing clouds.15 mph23%29.83 "Hg10 mi
12:59 PM69 °FPassing clouds.14 mph23%29.89 "Hg10 mi
11:59 AM68 °FPassing clouds.13 mph24%29.93 "Hg10 mi
10:59 AM65 °FPassing clouds.12 mph26%29.97 "Hg10 mi
8:59 AM55 °FPassing clouds.9 mph40%30.01 "Hg10 mi
7:59 AM49 °FPassing clouds.8 mph59%30.01 "Hg10 mi
6:59 AM45 °FPassing clouds.No wind68%30.01 "Hg10 mi
Weather by CustomWeather, © 2015

See weather overviewHow to use our weather pages